TimeCET,TemperatureF,Dew PointF,Humidity,Sea Level PressureIn,VisibilityMPH,Wind Direction,Wind SpeedMPH,Gust SpeedMPH,PrecipitationIn,Events,Conditions,WindDirDegrees,DateUTC
12:45 AM,37.4,37.4,100,30.30,0.1,North,2.3,-,N/A,Fog,Fog,350,2012-11-15 23:45:00
1:00 AM,37,37,100,30.31,0,North,2.2,,,Fog,Partial Fog,350,2012-11-16 00:00:00
1:45 AM,37.4,37.4,100,30.30,0.2,NNE,5.8,-,N/A,Fog,Fog,20,2012-11-16 00:45:00
2:45 AM,37.4,35.6,93,30.30,0.2,NNE,3.5,-,N/A,Fog,Fog,30,2012-11-16 01:45:00
3:45 AM,35.6,35.6,100,30.27,0.4,NE,8.1,-,N/A,Fog,Fog,40,2012-11-16 02:45:00
4:45 AM,37.4,37.4,100,30.27,1.2,NNE,5.8,-,N/A,,Mist,30,2012-11-16 03:45:00
5:15 AM,37.4,37.4,100,30.27,3.1,ENE,4.6,-,N/A,,Mostly Cloudy,60,2012-11-16 04:15:00
5:45 AM,37.4,37.4,100,30.27,3.7,NE,8.1,-,N/A,,Mostly Cloudy,50,2012-11-16 04:45:00
6:15 AM,37.4,37.4,100,30.27,3.1,NE,5.8,-,N/A,,Mostly Cloudy,40,2012-11-16 05:15:00
6:45 AM,37.4,37.4,100,30.30,1.6,Calm,Calm,-,N/A,,Mostly Cloudy,0,2012-11-16 05:45:00
7:00 AM,37,37,100,30.30,2,Calm,Calm,,,,Mist,,2012-11-16 06:00:00
7:15 AM,37.4,37.4,100,30.30,1.6,ESE,2.3,-,N/A,,Mostly Cloudy,110,2012-11-16 06:15:00
7:45 AM,39.2,39.2,100,30.30,-9999.0,North,2.3,-,N/A,,Mostly Cloudy,360,2012-11-16 06:45:00
8:15 AM,39.2,39.2,100,30.30,-9999.0,NE,3.5,-,N/A,,Mostly Cloudy,40,2012-11-16 07:15:00
8:45 AM,39.2,39.2,100,30.30,2.8,NE,3.5,-,N/A,,Mostly Cloudy,40,2012-11-16 07:45:00
9:15 AM,42.8,42.8,100,30.30,2.8,Calm,Calm,-,N/A,,Mostly Cloudy,0,2012-11-16 08:15:00
9:45 AM,44.6,42.8,93,30.30,3.7,NE,5.8,-,N/A,,Mostly Cloudy,50,2012-11-16 08:45:00
10:15 AM,46.4,42.8,87,30.30,3.7,ENE,4.6,-,N/A,,Mostly Cloudy,70,2012-11-16 09:15:00
10:45 AM,46.4,41.0,81,30.30,5.0,East,5.8,-,N/A,,Mostly Cloudy,80,2012-11-16 09:45:00
11:45 AM,48.2,42.8,82,30.30,5.0,ENE,6.9,-,N/A,,Mostly Cloudy,60,2012-11-16 10:45:00
12:15 PM,48.2,42.8,82,30.27,5.0,NE,6.9,-,N/A,,Mostly Cloudy,40,2012-11-16 11:15:00
12:45 PM,48.2,42.8,82,30.27,-9999.0,NE,6.9,-,N/A,,Clear,50,2012-11-16 11:45:00
1:00 PM,49,43,73,30.28,6,NE,6.7,,,,Partly Cloudy,50,2012-11-16 12:00:00
1:15 PM,50.0,42.8,76,30.27,-9999.0,NE,5.8,-,N/A,,Clear,50,2012-11-16 12:15:00
1:45 PM,50.0,44.6,82,30.27,-9999.0,NE,4.6,-,N/A,,Clear,50,2012-11-16 12:45:00
2:15 PM,50.0,44.6,82,30.27,-9999.0,NE,8.1,-,N/A,,Clear,40,2012-11-16 13:15:00
2:45 PM,50.0,44.6,82,30.24,-9999.0,NNE,8.1,-,N/A,,Clear,30,2012-11-16 13:45:00
3:15 PM,50.0,44.6,82,30.24,-9999.0,NE,6.9,-,N/A,,Clear,40,2012-11-16 14:15:00
3:45 PM,48.2,44.6,87,30.24,-9999.0,NE,4.6,-,N/A,,Clear,40,2012-11-16 14:45:00
4:15 PM,48.2,44.6,87,30.24,3.7,NE,3.5,-,N/A,,Partly Cloudy,40,2012-11-16 15:15:00
4:45 PM,44.6,42.8,93,30.24,2.8,North,5.8,-,N/A,,Partly Cloudy,10,2012-11-16 15:45:00
5:15 PM,44.6,42.8,93,30.27,2.8,NNE,4.6,-,N/A,,Partly Cloudy,20,2012-11-16 16:15:00
5:45 PM,42.8,42.8,100,30.27,2.8,NNE,4.6,-,N/A,,Partly Cloudy,30,2012-11-16 16:45:00
6:15 PM,41.0,41.0,100,30.27,1.9,NNE,5.8,-,N/A,,Partly Cloudy,20,2012-11-16 17:15:00
6:45 PM,41.0,41.0,100,30.27,1.9,NNE,4.6,-,N/A,,Partly Cloudy,20,2012-11-16 17:45:00
7:00 PM,41,40,97,30.27,2,NNE,4.5,,,,Mist,20,2012-11-16 18:00:00
7:15 PM,39.2,39.2,100,30.27,1.9,NNE,4.6,-,N/A,Fog,Fog,20,2012-11-16 18:15:00
7:45 PM,39.2,39.2,100,30.27,0.2,NNE,5.8,-,N/A,Fog,Fog,30,2012-11-16 18:45:00
8:15 PM,37.4,37.4,100,30.27,0.2,North,5.8,-,N/A,Fog,Fog,10,2012-11-16 19:15:00
8:45 PM,37.4,37.4,100,30.27,0.1,NNE,5.8,-,N/A,Fog,Fog,20,2012-11-16 19:45:00
9:45 PM,37.4,37.4,100,30.27,0.1,North,4.6,-,N/A,Fog,Fog,10,2012-11-16 20:45:00
10:45 PM,37.4,37.4,100,30.24,0.1,North,4.6,-,N/A,Fog,Fog,10,2012-11-16 21:45:00
11:45 PM,35.6,35.6,100,30.24,0.1,NE,1.2,-,N/A,Fog,Fog,40,2012-11-16 22:45:00